Date String (YYYY-MM-DD hh:mm:ss) UTC,Instrument flags,Ambient pressure (hPa),Sample flow (lpm),Bypass flow (lpm),Sample temperature (°C),Ambient temperature (°C),ASC tube jacket temperature (°C),LED temperature (°C),Box temperature (°C),Sample RH (%),Span deviation,Mass concentration (μg/m³),Mass concentration (μg/m³),Mass concentration (μg/m³)
DateTimeUTC,F1_M11,P_M11,Q1_M11,Q2_M11,T1_M11,T2_M11,T3_M11,T4_M11,T5_M11,U1_M11,ZSPAN_M11,X0_M11,X2_M11,X1_M11
2022-07-22 19:00:00,,0827.9,5.02,0.00,29.2,27.2,00.0,37.8,31.1,21.7,0001.8,0027.07,0008.51,0006.74
2022-07-22 19:01:00,,0827.8,4.99,0.00,29.2,27.0,00.0,37.7,31.0,21.9,0000.0,0027.55,0008.46,0006.73
2022-07-22 19:02:00,,0827.8,5.00,0.00,29.1,27.1,00.0,37.8,31.0,22.2,0001.3,0026.30,0008.43,0006.72
2022-07-22 19:03:00,,0827.7,5.00,0.00,29.1,27.2,00.0,37.8,31.0,21.5,0001.1,0024.81,0008.41,0006.71
2022-07-22 19:04:00,,0827.7,5.00,0.00,29.1,27.4,00.0,37.8,31.0,21.1,0001.9,0025.00,0008.40,0006.70
2022-07-22 19:05:00,,0827.7,5.00,0.00,29.1,27.6,00.0,37.8,31.1,21.0,0000.0,0025.37,0008.42,0006.67
2022-07-22 19:06:00,,0827.7,4.99,0.00,29.2,27.8,00.0,37.8,31.1,20.8,0000.0,0025.21,0008.34,0006.63
2022-07-22 19:07:00,,0827.7,5.01,0.00,29.2,28.0,00.0,37.8,31.2,20.6,0000.0,0025.53,0008.30,0006.61
2022-07-22 19:08:00,,0827.7,5.00,0.00,29.2,27.5,00.0,37.8,31.2,20.8,0000.0,0024.10,0008.24,0006.58
2022-07-22 19:09:00,,0827.7,5.01,0.00,29.2,27.0,00.0,37.8,31.1,20.8,0000.0,0022.60,0008.19,0006.56
2022-07-22 19:10:00,,0827.7,5.00,0.00,29.2,27.0,00.0,37.7,31.0,21.4,0000.0,0023.09,0008.22,0006.56
2022-07-22 19:11:00,,0827.8,5.00,0.00,29.1,27.1,00.0,37.8,31.0,21.6,0000.0,0023.29,0008.18,0006.54
2022-07-22 19:12:00,,0827.7,5.00,0.00,29.1,27.3,00.0,37.8,31.0,21.2,0000.9,0022.64,0008.14,0006.52
2022-07-22 19:13:00,,0827.7,5.00,0.00,29.1,27.5,00.0,37.8,31.0,21.1,0000.5,0022.48,0008.07,0006.48
2022-07-22 19:14:00,,0827.7,5.00,0.00,29.1,27.7,00.0,37.8,31.1,21.0,0000.0,0022.55,0008.09,0006.45
2022-07-22 19:15:00,,0827.7,4.99,0.00,29.2,27.9,00.0,37.8,31.2,20.9,0000.0,0023.37,0008.11,0006.43
2022-07-22 19:16:00,,0827.7,5.00,0.00,29.2,27.8,00.0,37.8,31.2,20.7,0000.0,0023.45,0008.08,0006.43
2022-07-22 19:17:00,,0827.7,5.00,0.00,29.2,27.2,00.0,37.8,31.1,20.3,0001.8,0024.87,0008.13,0006.43
2022-07-22 19:18:00,,0827.7,5.00,0.00,29.2,27.0,00.0,37.7,31.1,20.6,0001.8,0024.04,0008.10,0006.42
2022-07-22 19:19:00,,0827.7,5.00,0.00,29.2,27.1,00.0,37.8,31.0,20.9,0002.0,0024.71,0008.09,0006.44
2022-07-22 19:20:00,,0827.7,5.00,0.00,29.1,27.2,00.0,37.8,31.0,20.9,0002.4,0026.54,0008.08,0006.45
2022-07-22 19:21:00,,0827.7,5.01,0.00,29.1,27.4,00.0,37.8,31.0,20.6,0002.2,0025.86,0008.01,0006.45
2022-07-22 19:22:00,,0827.7,5.00,0.00,29.1,27.6,00.0,37.8,31.1,20.6,0001.5,0025.37,0007.96,0006.46
2022-07-22 19:23:00,,0827.7,5.01,0.00,29.2,27.8,00.0,37.8,31.1,20.6,0000.0,0024.96,0007.98,0006.47
2022-07-22 19:24:00,,0827.7,5.01,0.00,29.2,27.8,00.0,37.8,31.2,20.9,0000.0,0024.98,0007.97,0006.47
2022-07-22 19:25:00,,0827.6,5.00,0.00,29.2,27.2,00.0,37.8,31.1,20.5,0000.0,0025.01,0007.96,0006.48
2022-07-22 19:26:00,,0827.6,5.00,0.00,29.1,26.9,00.0,37.7,31.0,19.8,0001.1,0024.01,0007.96,0006.48
2022-07-22 19:27:00,,0827.6,5.00,0.00,29.1,27.0,00.0,37.7,31.0,20.2,0000.2,0023.25,0007.95,0006.47
2022-07-22 19:28:00,,0827.5,5.00,0.00,29.1,27.1,00.0,37.8,31.0,19.9,0000.0,0021.79,0007.89,0006.46
2022-07-22 19:29:00,,0827.6,5.01,0.00,29.1,27.3,00.0,37.8,31.0,19.9,0000.0,0022.10,0007.88,0006.45
2022-07-22 19:30:00,,0827.5,4.98,0.00,29.1,27.5,00.0,37.8,31.0,20.0,0000.0,0021.39,0007.87,0006.43
2022-07-22 19:31:00,,0827.6,5.01,0.00,29.1,27.7,00.0,37.8,31.1,19.9,0000.0,0019.95,0007.84,0006.40
2022-07-22 19:32:00,,0827.5,5.00,0.00,29.2,27.9,00.0,37.8,31.2,19.8,0000.0,0018.93,0007.78,0006.37
2022-07-22 19:33:00,,0827.6,5.00,0.00,29.2,27.6,00.0,37.8,31.2,20.1,0000.0,0018.38,0007.74,0006.34
2022-07-22 19:34:00,,0827.5,5.01,0.00,29.2,27.0,00.0,37.7,31.0,20.2,0000.0,0017.92,0007.72,0006.33
2022-07-22 19:35:00,,0827.5,5.00,0.00,29.1,27.0,00.0,37.7,31.0,19.5,0000.0,0017.76,0007.73,0006.32
2022-07-22 19:36:00,,0827.5,5.00,0.00,29.1,27.1,00.0,37.8,30.9,19.2,0000.0,0017.91,0007.71,0006.29
2022-07-22 19:37:00,,0827.5,4.99,0.00,29.1,27.3,00.0,37.8,31.0,19.6,0000.0,0018.79,0007.70,0006.27
2022-07-22 19:38:00,,0827.5,4.99,0.00,29.1,27.5,00.0,37.8,31.0,19.8,0000.0,0019.03,0007.69,0006.27
2022-07-22 19:39:00,,0827.5,5.00,0.00,29.1,27.7,00.0,37.8,31.1,19.2,0000.0,0019.24,0007.70,0006.26
2022-07-22 19:40:00,,0827.5,5.00,0.00,29.2,27.8,00.0,37.8,31.1,19.2,0000.0,0018.88,0007.75,0006.25
2022-07-22 19:41:00,,0827.5,5.00,0.00,29.2,27.5,00.0,37.8,31.1,18.9,0000.0,0018.96,0007.73,0006.24
2022-07-22 19:42:00,,0827.5,5.00,0.00,29.1,27.0,00.0,37.7,31.0,18.6,0000.0,0018.54,0007.71,0006.23
2022-07-22 19:43:00,,0827.4,5.01,0.00,29.1,26.9,00.0,37.7,31.0,18.9,0000.0,0018.61,0007.74,0006.21
2022-07-22 19:44:00,,0827.4,5.00,0.00,29.1,27.0,00.0,37.7,30.9,19.8,0000.0,0019.10,0007.77,0006.20
2022-07-22 19:45:00,,0827.4,4.99,0.00,29.1,27.2,00.0,37.7,30.9,20.0,0000.0,0018.92,0007.74,0006.20
2022-07-22 19:46:00,,0827.4,5.01,0.00,29.1,27.4,00.0,37.8,31.0,20.6,0000.0,0018.50,0007.73,0006.21
2022-07-22 19:47:00,,0827.4,5.00,0.00,29.1,27.6,00.0,37.8,31.0,21.2,0000.0,0018.09,0007.77,0006.23
2022-07-22 19:48:00,,0827.4,5.01,0.00,29.1,27.8,00.0,37.8,31.1,21.2,0000.0,0016.74,0007.77,0006.24
2022-07-22 19:49:00,,0827.4,4.99,0.00,29.2,28.0,00.0,37.8,31.2,20.6,0000.0,0017.54,0007.72,0006.25
2022-07-22 19:50:00,,0827.4,5.02,0.00,29.2,27.7,00.0,37.8,31.2,20.0,0000.0,0017.04,0007.68,0006.25
2022-07-22 19:51:00,,0827.4,5.00,0.00,29.2,27.1,00.0,37.7,31.1,20.4,0000.0,0017.60,0007.64,0006.24
2022-07-22 19:52:00,,0827.4,5.00,0.00,29.2,27.0,00.0,37.7,31.0,20.6,0000.0,0018.60,0007.67,0006.23
2022-07-22 19:53:00,,0827.4,5.01,0.00,29.1,27.1,00.0,37.7,31.0,20.9,0000.0,0019.62,0007.75,0006.22
2022-07-22 19:54:00,,0827.4,5.00,0.00,29.1,27.3,00.0,37.8,31.0,20.7,0000.0,0020.08,0007.80,0006.23
2022-07-22 19:55:00,,0827.3,5.00,0.00,29.1,27.5,00.0,37.8,31.0,19.9,0000.0,0020.00,0007.78,0006.24
2022-07-22 19:56:00,,0827.3,5.01,0.00,29.2,27.7,00.0,37.8,31.1,19.3,0000.0,0020.22,0007.75,0006.22
2022-07-22 19:57:00,,0827.2,4.98,0.00,29.2,27.9,00.0,37.8,31.2,18.8,0000.0,0020.97,0007.68,0006.18
2022-07-22 19:58:00,,0827.3,5.00,0.00,29.2,27.6,00.0,37.8,31.2,19.4,0000.0,0022.01,0007.65,0006.15
2022-07-22 19:59:00,,0827.3,5.01,0.00,29.2,27.0,00.0,37.8,31.1,19.8,0000.0,0022.65,0007.59,0006.15
